Content
SEND FEEDBACK

Daily
Averages
Monthly
Summary
United States of America

RAPID CITY, SOUTH DAKOTA


Home > North America > United States > South Dakota
Elevation: 3162 feet     Latitude: 44 03N     Longitude: 103 04W

WEATHER
 
SELECT A DAY
Number of Records: 200,374;   Date Range: 1/1/95 - 8/12/14
 
SHARE

PRINT THIS DATA

[ ← Previous Day ]
WEATHER ALMANAC - APRIL 3, 2013
[ Next Day → ]
[ °C ]   °F
Weather ElementAverageHighLow
Temperature51.1 °F71.1 °F (12:52 pm)28.9 °F (1:52 am)
Dewpoint26.9 °F34 °F (7:52 pm)21 °F (2:52 am)
Humidity45.7 %75 % (1:52 am)16 % (12:52 pm)
Barometer30.01 in30.16 in (10:52 pm)29.93 in (11:52 am)
Wind Speed12.7 mph24.2 mph (8:52 pm)
Wind Gust33.4 mph (7:52 pm)
Weather ElementAverage
Visibility10 mi
Wind DirectionWSW (234.8 °)

Weather ElementTotal
Precipitation---
Heating Degree Days15 (Base 65)
Averaged from 23 records on April 3, 2013
WEATHER CONDITIONS BREAKOUT
WIND DIRECTION BREAKOUT
WEATHER BY HOUR - APRIL 3, 2013
[ °C ]   °F
Local TimeTemperatureDewpointHumidityBarometerVisibilityWind DirectionWind SpeedGust SpeedPrecipitationEventsConditions
1:52 AM28.9 °F21.9 °F75 %30.08 in10.0 miSSE (150°)5.8 mphClear
2:52 AM30.0 °F21.0 °F69 %30.05 in10.0 miSE (140°)6.9 mphClear
3:52 AM28.9 °F21.9 °F75 %30.04 in10.0 miSE (130°)6.9 mphClear
4:52 AM30.9 °F21.9 °F69 %30.03 in10.0 miESE (120°)5.8 mphClear
5:52 AM30.9 °F23.0 °F72 %30.03 in10.0 miESE (110°)4.6 mphClear
6:52 AM33.1 °F26.1 °F75 %30.04 in10.0 miSE (130°)5.8 mphClear
7:52 AM44.1 °F32.0 °F63 %30.03 in10.0 miSSE (150°)6.9 mphClear
8:52 AM55.0 °F30.0 °F38 %30.01 in10.0 miSouth (170°)12.7 mphClear
9:52 AM60.1 °F30.9 °F33 %29.97 in10.0 miSouth (180°)16.1 mphClear
10:52 AM64.9 °F25.0 °F22 %29.95 in10.0 miSouth (180°)18.4 mphClear
11:52 AM68.0 °F21.0 °F17 %29.93 in10.0 miSouth (170°)11.5 mph16.1 mphClear
12:52 PM71.1 °F23.0 °F16 %29.93 in10.0 miNorth (350°)11.5 mph16.1 mphClear
1:52 PM71.1 °F26.1 °F19 %29.94 in10.0 miNorth (360°)11.5 mphClear
2:52 PM68.0 °F27.0 °F21 %29.94 in10.0 miNorth (350°)16.1 mph26.5 mphPartly Cloudy
3:52 PM68.0 °F28.0 °F22 %29.94 in10.0 miNorth (10°)12.7 mph17.3 mphClear
4:52 PM64.9 °F28.9 °F26 %29.95 in10.0 miNNW (330°)23.0 mph31.1 mphOvercast
5:52 PM64.0 °F28.9 °F27 %29.97 in10.0 miNNW (340°)17.3 mphOvercast
6:52 PM64.0 °F28.0 °F26 %29.98 in10.0 miNW (320°)15.0 mph21.9 mphPartly Cloudy
7:52 PM57.0 °F34.0 °F42 %30.01 in10.0 miNorth (350°)23.0 mph33.4 mphMostly Cloudy
8:52 PM50.0 °F33.1 °F52 %30.07 in10.0 miNorth (360°)24.2 mph29.9 mphClear
9:52 PM45.0 °F30.9 °F58 %30.14 in10.0 miNorth (360°)17.3 mphScattered Clouds
10:52 PM39.9 °F28.9 °F65 %30.16 in10.0 miNW (310°)6.9 mphClear
11:52 PM37.0 °F28.0 °F70 %30.15 in10.0 miNNW (330°)12.7 mphClear
Hourly data recorded from KRAP, located miles away from Rapid City, South Dakota







STORIES FROM OUR PARTNERS